Location: Unspecified
(0.0000°N, 0.0000°E)
Time: 14:57:23
(UTC+02:00)

Tiangong 1 - Visible Passes

Search period start: 26 May 2017 00:00
Search period end: 05 June 2017 00:00
Orbit: 323 x 350 km, 42.8° (Epoch: 25 May)

Date Brightness Start Highest point End Pass type
(mag) Time Alt. Az. Time Alt. Az. Time Alt. Az.
26 May 2.8 07:25:41 10° SSW 07:28:03 24° SE 07:30:27 10° ENE visible
26 May 3.1 20:23:57 10° W 20:26:10 20° SW 20:28:24 10° S visible
28 May 2.5 06:33:29 25° SE 06:33:42 25° SE 06:36:06 10° ENE visible
29 May 1.3 06:53:36 36° W 06:54:11 43° NW 06:56:53 10° NNE visible
